Lid_Strength_Index
-0 -0 0 0 0 0 0 0 -0 -0 -0 0 1 2 2 2 4 9 10 7 4 1 3 8 9 8 8 9 9 10 14 16 15 15 14 13 13 12 12 13 12 11 10 9 8
-0 0 0 -0 0 1 1 0 -0 0 0 1 2 2 2 2 10 11 7 2 2 1 8 10 11 10 11 11 11 12 15 14 14 14 14 13 13 13 13 13 13 11 10 9 8
-0 -0 0 0 0 1 1 1 1 1 1 1 2 2 2 5 11 12 4 2 2 4 8 9 10 10 12 12 12 13 15 14 14 12 13 13 14 13 13 13 12 12 10 10 9
-0 -0 0 1 1 1 1 1 1 1 1 2 3 2 3 9 15 11 3 3 3 6 9 11 12 12 13 13 12 14 13 14 13 13 14 14 13 13 14 12 12 12 10 10 9
-0 0 1 1 1 1 1 1 1 2 2 3 3 2 8 13 13 9 5 6 8 9 10 12 13 13 15 14 13 13 13 12 13 13 13 13 14 14 14 12 12 10 10 10 9
0 0 1 1 1 1 1 2 1 2 3 3 2 3 11 14 10 10 9 8 8 9 11 11 12 12 13 14 15 14 13 13 12 12 12 13 14 14 14 13 13 11 11 10 10
0 1 1 1 2 2 2 2 2 2 3 3 3 10 12 13 11 10 9 9 9 9 10 10 10 12 13 14 13 14 16 14 14 13 13 13 14 15 13 13 12 12 11 10 10
0 1 1 1 2 2 2 2 2 3 3 3 4 12 15 10 11 10 9 9 9 8 10 10 10 11 13 13 13 15 15 17 14 14 14 14 15 13 13 13 13 13 13 12 10
0 1 1 2 2 2 2 2 3 2 2 4 10 12 15 8 11 10 10 10 10 9 10 9 11 13 13 15 17 17 20 17 16 15 15 15 15 13 13 13 13 13 13 13 12
0 1 2 2 2 2 2 2 4 6 9 9 11 12 12 13 11 10 10 9 10 11 11 11 14 16 17 17 20 19 19 17 18 16 16 16 16 13 13 13 13 13 12 12 12
1 2 2 2 2 3 6 8 9 11 12 15 15 15 13 11 10 10 10 10 11 12 15 14 17 20 18 17 17 18 18 18 17 16 17 17 18 15 14 15 15 14 14 14 13
1 2 2 2 2 4 8 11 12 12 15 13 14 14 13 12 12 10 9 13 14 16 14 16 18 16 15 15 16 16 18 19 17 16 17 19 18 16 16 16 15 14 14 14 14
3 3 3 2 4 7 10 10 9 10 14 13 13 13 13 11 12 12 10 12 14 16 17 16 16 14 15 16 16 18 19 19 18 17 18 20 18 17 16 16 15 14 14 14 14
3 3 3 3 6 9 10 8 8 9 18 14 13 12 10 11 12 10 10 12 14 17 15 15 14 14 15 16 16 18 17 17 18 21 22 20 22 17 16 15 15 15 14 14 13
3 3 4 4 8 10 9 7 9 10 23 14 13 10 10 12 12 11 10 11 14 15 15 16 15 15 16 15 15 16 15 16 18 23 22 20 23 17 16 15 15 14 13 13 12
4 3 3 6 9 9 8 9 10 16 23 16 13 13 13 13 12 11 11 10 12 13 14 15 14 14 15 14 14 15 17 18 20 24 25 26 23 18 16 16 15 14 14 13 12
4 4 6 7 10 9 9 11 17 20 16 17 15 13 15 15 13 13 14 15 16 20 21 17 15 14 14 15 14 17 22 26 25 26 24 30 23 18 15 15 14 14 14 14 13
4 6 7 8 9 9 11 15 21 20 19 14 14 14 15 14 15 14 15 17 15 17 23 24 23 19 14 15 17 18 22 24 29 27 24 29 24 16 15 15 15 14 14 14 13
4 7 9 9 8 10 13 20 20 18 15 15 15 19 19 15 16 17 17 18 16 17 21 23 21 15 14 14 16 19 23 19 28 34 28 25 21 16 14 16 15 15 14 15 14
7 9 10 9 10 12 17 18 19 15 13 14 18 18 23 21 18 20 19 15 15 15 17 18 23 19 15 15 16 19 17 23 25 28 30 27 30 20 20 19 18 16 17 15 14
9 12 9 10 12 15 20 23 20 14 13 14 16 19 18 20 18 21 19 15 15 16 15 19 22 22 17 22 22 21 23 23 23 23 26 29 23 20 21 21 20 20 18 19 17
11 16 10 12 17 23 23 21 13 14 13 13 14 15 18 17 18 22 17 16 14 15 16 15 18 25 23 18 17 18 21 20 23 27 27 25 24 18 20 24 25 18 17 15 15
15 16 12 13 21 24 17 16 14 15 14 14 15 14 15 19 21 16 16 13 13 14 16 15 23 29 23 21 18 21 18 19 22 21 26 25 23 21 24 22 23 22 17 16 14
16 19 17 16 18 19 20 19 18 14 14 13 13 13 15 20 17 20 15 13 12 13 10 12 18 24 24 24 23 22 20 19 21 27 23 22 23 20 17 19 18 17 17 18 17
16 19 18 22 20 18 17 18 17 18 15 14 16 14 17 21 19 21 15 14 13 11 13 15 24 20 21 24 24 21 22 21 22 22 22 20 20 24 23 22 21 20 19 18 17
16 17 17 15 16 17 17 18 18 18 16 16 18 15 15 21 17 18 16 15 15 15 14 15 24 21 24 18 17 19 17 19 18 18 20 17 18 23 23 25 21 20 20 19 17
14 14 15 15 17 19 19 16 16 15 15 14 15 15 15 14 14 14 13 13 14 15 16 17 23 26 28 23 25 25 22 19 20 23 19 23 21 25 24 23 24 20 17 17 16